User: anonymous   Login
Location: Unspecified
(0.0000°N, 0.0000°E)
Time: 22:26:10
(UTC+00:00)
Language:

STARLINK-3560 - Orbit

View from above orbital plane
View from above orbital plane
View from above satellite
View from above satellite

Ground track
Ground track

The orbit is defined by the following mean orbital elements,

1 51859U          26144.96440536 +.00000000 +00000-0 -57043-4 0 00009
2 51859  53.2137  26.7174 0001713  89.0165 271.1023 15.08841874    01
Epoch (UTC): 24 May 2026 23:08:44
Eccentricity: 0.0001713
inclination: 53.2137°
perigee height: 539 km
apogee height: 541 km
right ascension of ascending node: 26.7174°
argument of perigee: 89.0165°
revolutions per day: 15.08841874
mean anomaly at epoch: 271.1023°

The dashed part of the orbit path shows where the satellite is in the earth's shadow,  

DLR